TimeCST,TemperatureF,Dew PointF,Humidity,Sea Level PressureIn,VisibilityMPH,Wind Direction,Wind SpeedMPH,Gust SpeedMPH,PrecipitationIn,Events,Conditions,WindDirDegrees,DateUTC
12:53 AM,21.9,14.0,72,30.26,10.0,WSW,8.1,-,N/A,,Clear,250,2013-01-16 06:53:00
1:53 AM,21.0,14.0,74,30.25,10.0,SW,6.9,-,N/A,,Clear,230,2013-01-16 07:53:00
2:53 AM,23.0,16.0,74,30.24,10.0,WSW,8.1,-,N/A,,Clear,250,2013-01-16 08:53:00
3:53 AM,21.0,15.1,78,30.24,10.0,West,9.2,-,N/A,,Clear,280,2013-01-16 09:53:00
4:53 AM,21.0,15.1,78,30.22,10.0,West,4.6,-,N/A,,Clear,260,2013-01-16 10:53:00
5:53 AM,19.9,15.1,81,30.22,10.0,WSW,6.9,-,N/A,,Clear,240,2013-01-16 11:53:00
6:53 AM,18.0,12.9,81,30.23,10.0,SW,5.8,-,N/A,,Clear,220,2013-01-16 12:53:00
7:53 AM,19.9,15.1,81,30.25,10.0,WSW,8.1,-,N/A,,Clear,250,2013-01-16 13:53:00
8:53 AM,25.0,18.0,75,30.24,10.0,WSW,11.5,-,N/A,,Clear,250,2013-01-16 14:53:00
9:53 AM,30.9,23.0,72,30.25,10.0,WSW,10.4,-,N/A,,Mostly Cloudy,240,2013-01-16 15:53:00
10:53 AM,35.1,21.9,59,30.25,10.0,WSW,6.9,-,N/A,,Partly Cloudy,240,2013-01-16 16:53:00
11:53 AM,39.9,19.9,45,30.22,10.0,West,6.9,-,N/A,,Clear,270,2013-01-16 17:53:00
12:53 PM,46.0,21.9,39,30.18,10.0,Variable,6.9,-,N/A,,Clear,0,2013-01-16 18:53:00
1:53 PM,46.0,26.1,46,30.17,10.0,NW,11.5,-,N/A,,Mostly Cloudy,320,2013-01-16 19:53:00
2:53 PM,50.0,27.0,41,30.15,10.0,NW,10.4,-,N/A,,Clear,310,2013-01-16 20:53:00
3:53 PM,51.1,28.9,43,30.15,10.0,NNW,9.2,-,N/A,,Clear,340,2013-01-16 21:53:00
4:53 PM,50.0,30.0,46,30.17,10.0,NNW,12.7,-,N/A,,Clear,330,2013-01-16 22:53:00
5:53 PM,41.0,28.0,60,30.21,10.0,NNW,5.8,-,N/A,,Clear,330,2013-01-16 23:53:00
6:53 PM,36.0,27.0,70,30.24,10.0,WNW,3.5,-,N/A,,Clear,300,2013-01-17 00:53:00
7:53 PM,36.0,28.0,73,30.25,10.0,West,8.1,-,N/A,,Clear,280,2013-01-17 01:53:00
8:53 PM,36.0,28.0,73,30.26,10.0,West,10.4,-,N/A,,Clear,280,2013-01-17 02:53:00
9:53 PM,37.9,28.9,70,30.27,10.0,WNW,10.4,-,N/A,,Clear,290,2013-01-17 03:53:00
10:53 PM,37.0,28.9,73,30.28,10.0,WNW,12.7,-,N/A,,Clear,300,2013-01-17 04:53:00
11:53 PM,39.0,28.9,67,30.30,10.0,NW,15.0,-,N/A,,Clear,310,2013-01-17 05:53:00